<?xml version="1.0" encoding="UTF-8"?>
<gpx
version="1.1"
creator="Kashmir3D 9.350 - http://www.kashmir3d.com"
xmlns:xsi="http://www.w3.org/2001/XMLSchema-instance"
xmlns="http://www.topografix.com/GPX/1/1"
xmlns:kashmir3d="http://www.kashmir3d.com/namespace/kashmir3d"
xsi:schemaLocation="http://www.topografix.com/GPX/1/1 http://www.topografix.com/GPX/1/1/gpx.xsd
	http://www.kashmir3d.com/namespace/kashmir3d http://www.kashmir3d.com/namespace/kashmir3d.xsd">
<trk>
 <name>ARIKOYAMAJOUSEKI.KML(有子山城跡)</name>
 <number>1</number>
 <extensions>
 <kashmir3d:line_color>0000ff</kashmir3d:line_color>
 <kashmir3d:line_size>3</kashmir3d:line_size>
 <kashmir3d:line_style>1</kashmir3d:line_style>
 <kashmir3d:icon>901001</kashmir3d:icon>
 </extensions>
<trkseg>
<trkpt lat="35.459668" lon="134.872870">
 <ele>11.9</ele>
 <time>2020-03-24T14:09:36Z</time>
</trkpt>
<trkpt lat="35.459780" lon="134.872977">
 <ele>12.5</ele>
 <time>2020-03-24T14:09:36Z</time>
</trkpt>
<trkpt lat="35.459814" lon="134.873074">
 <ele>13.4</ele>
 <time>2020-03-24T14:09:36Z</time>
</trkpt>
<trkpt lat="35.459848" lon="134.873181">
 <ele>13.9</ele>
 <time>2020-03-24T14:09:36Z</time>
</trkpt>
<trkpt lat="35.460003" lon="134.873277">
 <ele>14.5</ele>
 <time>2020-03-24T14:09:36Z</time>
</trkpt>
<trkpt lat="35.460140" lon="134.873331">
 <ele>13.6</ele>
 <time>2020-03-24T14:09:37Z</time>
</trkpt>
<trkpt lat="35.460269" lon="134.873374">
 <ele>13.4</ele>
 <time>2020-03-24T14:09:37Z</time>
</trkpt>
<trkpt lat="35.460398" lon="134.873449">
 <ele>13.4</ele>
 <time>2020-03-24T14:09:37Z</time>
</trkpt>
<trkpt lat="35.460655" lon="134.873514">
 <ele>12.5</ele>
 <time>2020-03-24T14:09:37Z</time>
</trkpt>
<trkpt lat="35.460835" lon="134.873556">
 <ele>12.7</ele>
 <time>2020-03-24T14:09:37Z</time>
</trkpt>
<trkpt lat="35.460930" lon="134.873610">
 <ele>10.8</ele>
 <time>2020-03-24T14:09:37Z</time>
</trkpt>
<trkpt lat="35.461041" lon="134.873674">
 <ele>13.1</ele>
 <time>2020-03-24T14:09:37Z</time>
</trkpt>
<trkpt lat="35.461041" lon="134.873814">
 <ele>12.9</ele>
 <time>2020-03-24T14:09:37Z</time>
</trkpt>
<trkpt lat="35.460878" lon="134.873857">
 <ele>14.1</ele>
 <time>2020-03-24T14:09:37Z</time>
</trkpt>
<trkpt lat="35.460715" lon="134.873878">
 <ele>17.3</ele>
 <time>2020-03-24T14:09:37Z</time>
</trkpt>
<trkpt lat="35.460595" lon="134.873921">
 <ele>20</ele>
 <time>2020-03-24T14:09:38Z</time>
</trkpt>
<trkpt lat="35.460492" lon="134.873921">
 <ele>20.4</ele>
 <time>2020-03-24T14:09:38Z</time>
</trkpt>
<trkpt lat="35.460355" lon="134.873943">
 <ele>22.3</ele>
 <time>2020-03-24T14:09:38Z</time>
</trkpt>
<trkpt lat="35.460260" lon="134.873953">
 <ele>23.5</ele>
 <time>2020-03-24T14:09:38Z</time>
</trkpt>
<trkpt lat="35.460140" lon="134.873921">
 <ele>27.4</ele>
 <time>2020-03-24T14:09:38Z</time>
</trkpt>
<trkpt lat="35.459994" lon="134.873889">
 <ele>29.1</ele>
 <time>2020-03-24T14:09:38Z</time>
</trkpt>
<trkpt lat="35.459943" lon="134.873889">
 <ele>30.4</ele>
 <time>2020-03-24T14:09:38Z</time>
</trkpt>
<trkpt lat="35.459968" lon="134.874136">
 <ele>33.3</ele>
 <time>2020-03-24T14:09:38Z</time>
</trkpt>
<trkpt lat="35.460020" lon="134.874254">
 <ele>33.1</ele>
 <time>2020-03-24T14:09:38Z</time>
</trkpt>
<trkpt lat="35.460114" lon="134.874340">
 <ele>33.1</ele>
 <time>2020-03-24T14:09:38Z</time>
</trkpt>
<trkpt lat="35.460166" lon="134.874522">
 <ele>33.1</ele>
 <time>2020-03-24T14:09:39Z</time>
</trkpt>
<trkpt lat="35.460192" lon="134.874694">
 <ele>32.7</ele>
 <time>2020-03-24T14:09:39Z</time>
</trkpt>
<trkpt lat="35.460132" lon="134.874758">
 <ele>34</ele>
 <time>2020-03-24T14:09:39Z</time>
</trkpt>
<trkpt lat="35.459951" lon="134.874801">
 <ele>39.3</ele>
 <time>2020-03-24T14:09:39Z</time>
</trkpt>
<trkpt lat="35.459805" lon="134.874844">
 <ele>43.1</ele>
 <time>2020-03-24T14:09:39Z</time>
</trkpt>
<trkpt lat="35.459737" lon="134.874844">
 <ele>44.5</ele>
 <time>2020-03-24T14:09:39Z</time>
</trkpt>
<trkpt lat="35.459659" lon="134.874908">
 <ele>47</ele>
 <time>2020-03-24T14:09:39Z</time>
</trkpt>
<trkpt lat="35.459642" lon="134.874994">
 <ele>49.7</ele>
 <time>2020-03-24T14:09:39Z</time>
</trkpt>
<trkpt lat="35.459625" lon="134.875080">
 <ele>52.1</ele>
 <time>2020-03-24T14:09:39Z</time>
</trkpt>
<trkpt lat="35.459659" lon="134.875176">
 <ele>55.4</ele>
 <time>2020-03-24T14:09:39Z</time>
</trkpt>
<trkpt lat="35.459737" lon="134.875252">
 <ele>62.2</ele>
 <time>2020-03-24T14:09:40Z</time>
</trkpt>
<trkpt lat="35.459823" lon="134.875273">
 <ele>59.6</ele>
 <time>2020-03-24T14:09:40Z</time>
</trkpt>
<trkpt lat="35.459848" lon="134.875359">
 <ele>59</ele>
 <time>2020-03-24T14:09:40Z</time>
</trkpt>
<trkpt lat="35.459720" lon="134.875477">
 <ele>69.8</ele>
 <time>2020-03-24T14:09:40Z</time>
</trkpt>
<trkpt lat="35.459599" lon="134.875595">
 <ele>71</ele>
 <time>2020-03-24T14:09:40Z</time>
</trkpt>
<trkpt lat="35.459445" lon="134.875799">
 <ele>81.6</ele>
 <time>2020-03-24T14:09:40Z</time>
</trkpt>
<trkpt lat="35.459333" lon="134.875938">
 <ele>87.1</ele>
 <time>2020-03-24T14:09:40Z</time>
</trkpt>
<trkpt lat="35.459247" lon="134.876088">
 <ele>95.8</ele>
 <time>2020-03-24T14:09:40Z</time>
</trkpt>
<trkpt lat="35.459170" lon="134.876217">
 <ele>103.5</ele>
 <time>2020-03-24T14:09:40Z</time>
</trkpt>
<trkpt lat="35.459076" lon="134.876335">
 <ele>112</ele>
 <time>2020-03-24T14:09:41Z</time>
</trkpt>
<trkpt lat="35.458990" lon="134.876464">
 <ele>119</ele>
 <time>2020-03-24T14:09:41Z</time>
</trkpt>
<trkpt lat="35.458913" lon="134.876560">
 <ele>124</ele>
 <time>2020-03-24T14:09:41Z</time>
</trkpt>
<trkpt lat="35.458835" lon="134.876668">
 <ele>132</ele>
 <time>2020-03-24T14:09:41Z</time>
</trkpt>
<trkpt lat="35.458767" lon="134.876764">
 <ele>138</ele>
 <time>2020-03-24T14:09:41Z</time>
</trkpt>
<trkpt lat="35.458698" lon="134.876839">
 <ele>145</ele>
 <time>2020-03-24T14:09:41Z</time>
</trkpt>
<trkpt lat="35.458681" lon="134.876915">
 <ele>145</ele>
 <time>2020-03-24T14:09:41Z</time>
</trkpt>
<trkpt lat="35.458604" lon="134.876979">
 <ele>151</ele>
 <time>2020-03-24T14:09:42Z</time>
</trkpt>
<trkpt lat="35.458552" lon="134.877033">
 <ele>154</ele>
 <time>2020-03-24T14:09:42Z</time>
</trkpt>
<trkpt lat="35.458501" lon="134.877097">
 <ele>158</ele>
 <time>2020-03-24T14:09:42Z</time>
</trkpt>
<trkpt lat="35.458424" lon="134.877140">
 <ele>160</ele>
 <time>2020-03-24T14:09:42Z</time>
</trkpt>
<trkpt lat="35.458381" lon="134.877236">
 <ele>161</ele>
 <time>2020-03-24T14:09:42Z</time>
</trkpt>
<trkpt lat="35.458338" lon="134.877312">
 <ele>163</ele>
 <time>2020-03-24T14:09:42Z</time>
</trkpt>
<trkpt lat="35.458286" lon="134.877376">
 <ele>164</ele>
 <time>2020-03-24T14:09:43Z</time>
</trkpt>
<trkpt lat="35.458243" lon="134.877376">
 <ele>164</ele>
 <time>2020-03-24T14:09:43Z</time>
</trkpt>
<trkpt lat="35.458183" lon="134.877430">
 <ele>167</ele>
 <time>2020-03-24T14:09:43Z</time>
</trkpt>
<trkpt lat="35.458080" lon="134.877515">
 <ele>173</ele>
 <time>2020-03-24T14:09:43Z</time>
</trkpt>
<trkpt lat="35.457969" lon="134.877612">
 <ele>174</ele>
 <time>2020-03-24T14:09:43Z</time>
</trkpt>
<trkpt lat="35.457891" lon="134.877655">
 <ele>178</ele>
 <time>2020-03-24T14:09:43Z</time>
</trkpt>
<trkpt lat="35.457831" lon="134.877719">
 <ele>182</ele>
 <time>2020-03-24T14:09:44Z</time>
</trkpt>
<trkpt lat="35.457728" lon="134.877805">
 <ele>192</ele>
 <time>2020-03-24T14:09:44Z</time>
</trkpt>
<trkpt lat="35.457608" lon="134.877923">
 <ele>199</ele>
 <time>2020-03-24T14:09:44Z</time>
</trkpt>
<trkpt lat="35.457531" lon="134.878030">
 <ele>204</ele>
 <time>2020-03-24T14:09:44Z</time>
</trkpt>
<trkpt lat="35.457462" lon="134.878138">
 <ele>207</ele>
 <time>2020-03-24T14:09:44Z</time>
</trkpt>
<trkpt lat="35.457385" lon="134.878181">
 <ele>213</ele>
 <time>2020-03-24T14:09:44Z</time>
</trkpt>
<trkpt lat="35.457333" lon="134.878266">
 <ele>219</ele>
 <time>2020-03-24T14:09:44Z</time>
</trkpt>
<trkpt lat="35.457248" lon="134.878374">
 <ele>228</ele>
 <time>2020-03-24T14:09:45Z</time>
</trkpt>
<trkpt lat="35.457162" lon="134.878481">
 <ele>241</ele>
 <time>2020-03-24T14:09:45Z</time>
</trkpt>
<trkpt lat="35.457093" lon="134.878545">
 <ele>243</ele>
 <time>2020-03-24T14:09:45Z</time>
</trkpt>
<trkpt lat="35.457033" lon="134.878610">
 <ele>245</ele>
 <time>2020-03-24T14:09:45Z</time>
</trkpt>
<trkpt lat="35.456956" lon="134.878610">
 <ele>247</ele>
 <time>2020-03-24T14:09:45Z</time>
</trkpt>
<trkpt lat="35.456870" lon="134.878631">
 <ele>249</ele>
 <time>2020-03-24T14:09:45Z</time>
</trkpt>
<trkpt lat="35.456810" lon="134.878663">
 <ele>252</ele>
 <time>2020-03-24T14:09:46Z</time>
</trkpt>
<trkpt lat="35.456741" lon="134.878685">
 <ele>254</ele>
 <time>2020-03-24T14:09:46Z</time>
</trkpt>
<trkpt lat="35.456698" lon="134.878685">
 <ele>254</ele>
 <time>2020-03-24T14:09:46Z</time>
</trkpt>
<trkpt lat="35.456570" lon="134.878620">
 <ele>258</ele>
 <time>2020-03-24T14:09:46Z</time>
</trkpt>
<trkpt lat="35.456509" lon="134.878556">
 <ele>261</ele>
 <time>2020-03-24T14:09:46Z</time>
</trkpt>
<trkpt lat="35.456467" lon="134.878459">
 <ele>260</ele>
 <time>2020-03-24T14:09:46Z</time>
</trkpt>
<trkpt lat="35.456449" lon="134.878363">
 <ele>258</ele>
 <time>2020-03-24T14:09:47Z</time>
</trkpt>
<trkpt lat="35.456458" lon="134.878223">
 <ele>257</ele>
 <time>2020-03-24T14:09:47Z</time>
</trkpt>
<trkpt lat="35.456441" lon="134.878127">
 <ele>255</ele>
 <time>2020-03-24T14:09:47Z</time>
</trkpt>
<trkpt lat="35.456406" lon="134.878084">
 <ele>253</ele>
 <time>2020-03-24T14:09:47Z</time>
</trkpt>
<trkpt lat="35.456355" lon="134.878030">
 <ele>254</ele>
 <time>2020-03-24T14:09:47Z</time>
</trkpt>
<trkpt lat="35.456278" lon="134.877977">
 <ele>259</ele>
 <time>2020-03-24T14:09:47Z</time>
</trkpt>
<trkpt lat="35.456261" lon="134.877880">
 <ele>259</ele>
 <time>2020-03-24T14:09:47Z</time>
</trkpt>
<trkpt lat="35.456235" lon="134.877784">
 <ele>256</ele>
 <time>2020-03-24T14:09:48Z</time>
</trkpt>
<trkpt lat="35.456243" lon="134.877698">
 <ele>253</ele>
 <time>2020-03-24T14:09:48Z</time>
</trkpt>
<trkpt lat="35.456252" lon="134.877580">
 <ele>252</ele>
 <time>2020-03-24T14:09:48Z</time>
</trkpt>
<trkpt lat="35.456252" lon="134.877483">
 <ele>253</ele>
 <time>2020-03-24T14:09:48Z</time>
</trkpt>
<trkpt lat="35.456252" lon="134.877354">
 <ele>254</ele>
 <time>2020-03-24T14:09:48Z</time>
</trkpt>
<trkpt lat="35.456218" lon="134.877301">
 <ele>254</ele>
 <time>2020-03-24T14:09:48Z</time>
</trkpt>
<trkpt lat="35.456200" lon="134.877236">
 <ele>254</ele>
 <time>2020-03-24T14:09:49Z</time>
</trkpt>
<trkpt lat="35.456209" lon="134.877151">
 <ele>253</ele>
 <time>2020-03-24T14:09:49Z</time>
</trkpt>
<trkpt lat="35.456252" lon="134.877033">
 <ele>254</ele>
 <time>2020-03-24T14:09:49Z</time>
</trkpt>
<trkpt lat="35.456295" lon="134.876915">
 <ele>254</ele>
 <time>2020-03-24T14:09:49Z</time>
</trkpt>
<trkpt lat="35.456269" lon="134.876786">
 <ele>256</ele>
 <time>2020-03-24T14:09:49Z</time>
</trkpt>
<trkpt lat="35.456243" lon="134.876689">
 <ele>262</ele>
 <time>2020-03-24T14:09:49Z</time>
</trkpt>
<trkpt lat="35.456209" lon="134.876625">
 <ele>263</ele>
 <time>2020-03-24T14:09:50Z</time>
</trkpt>
<trkpt lat="35.456175" lon="134.876625">
 <ele>268</ele>
 <time>2020-03-24T14:09:50Z</time>
</trkpt>
<trkpt lat="35.456175" lon="134.876732">
 <ele>267</ele>
 <time>2020-03-24T14:09:50Z</time>
</trkpt>
<trkpt lat="35.456183" lon="134.876861">
 <ele>264</ele>
 <time>2020-03-24T14:09:50Z</time>
</trkpt>
<trkpt lat="35.456166" lon="134.876904">
 <ele>264</ele>
 <time>2020-03-24T14:09:50Z</time>
</trkpt>
<trkpt lat="35.456123" lon="134.876904">
 <ele>270</ele>
 <time>2020-03-24T14:09:50Z</time>
</trkpt>
<trkpt lat="35.456080" lon="134.876786">
 <ele>272</ele>
 <time>2020-03-24T14:09:50Z</time>
</trkpt>
<trkpt lat="35.456072" lon="134.876861">
 <ele>270</ele>
 <time>2020-03-24T14:09:51Z</time>
</trkpt>
<trkpt lat="35.456037" lon="134.876872">
 <ele>277</ele>
 <time>2020-03-24T14:09:51Z</time>
</trkpt>
<trkpt lat="35.455994" lon="134.876764">
 <ele>277</ele>
 <time>2020-03-24T14:09:51Z</time>
</trkpt>
<trkpt lat="35.455934" lon="134.876904">
 <ele>282</ele>
 <time>2020-03-24T14:09:51Z</time>
</trkpt>
<trkpt lat="35.455857" lon="134.877011">
 <ele>287</ele>
 <time>2020-03-24T14:09:51Z</time>
</trkpt>
<trkpt lat="35.455789" lon="134.877129">
 <ele>292</ele>
 <time>2020-03-24T14:09:51Z</time>
</trkpt>
<trkpt lat="35.455737" lon="134.877236">
 <ele>299</ele>
 <time>2020-03-24T14:09:52Z</time>
</trkpt>
<trkpt lat="35.455720" lon="134.877312">
 <ele>299</ele>
 <time>2020-03-24T14:09:52Z</time>
</trkpt>
<trkpt lat="35.455686" lon="134.877408">
 <ele>305</ele>
 <time>2020-03-24T14:09:52Z</time>
</trkpt>
<trkpt lat="35.455668" lon="134.877462">
 <ele>306</ele>
 <time>2020-03-24T14:09:52Z</time>
</trkpt>
<trkpt lat="35.455643" lon="134.877548">
 <ele>306</ele>
 <time>2020-03-24T14:09:52Z</time>
</trkpt>
<trkpt lat="35.455591" lon="134.877601">
 <ele>312</ele>
 <time>2020-03-24T14:09:52Z</time>
</trkpt>
<trkpt lat="35.455548" lon="134.877590">
 <ele>315</ele>
 <time>2020-03-24T14:09:53Z</time>
</trkpt>
<trkpt lat="35.455514" lon="134.877655">
 <ele>317</ele>
 <time>2020-03-24T14:09:53Z</time>
</trkpt>
<trkpt lat="35.455497" lon="134.877751">
 <ele>319</ele>
 <time>2020-03-24T14:09:53Z</time>
</trkpt>
<trkpt lat="35.455445" lon="134.877816">
 <ele>320</ele>
 <time>2020-03-24T14:09:53Z</time>
</trkpt>
<trkpt lat="35.455419" lon="134.877869">
 <ele>320</ele>
 <time>2020-03-24T14:09:53Z</time>
</trkpt>
<trkpt lat="35.455506" lon="134.878036">
 <ele>320</ele>
 <time>2020-03-24T14:09:53Z</time>
</trkpt>
<trkpt lat="35.455419" lon="134.877869">
 <ele>320</ele>
 <time>2020-03-24T14:09:54Z</time>
</trkpt>
<trkpt lat="35.455445" lon="134.877816">
 <ele>320</ele>
 <time>2020-03-24T14:09:54Z</time>
</trkpt>
<trkpt lat="35.455497" lon="134.877751">
 <ele>319</ele>
 <time>2020-03-24T14:09:54Z</time>
</trkpt>
<trkpt lat="35.455514" lon="134.877655">
 <ele>317</ele>
 <time>2020-03-24T14:09:54Z</time>
</trkpt>
<trkpt lat="35.455548" lon="134.877590">
 <ele>315</ele>
 <time>2020-03-24T14:09:54Z</time>
</trkpt>
<trkpt lat="35.455591" lon="134.877601">
 <ele>312</ele>
 <time>2020-03-24T14:09:54Z</time>
</trkpt>
<trkpt lat="35.455643" lon="134.877548">
 <ele>306</ele>
 <time>2020-03-24T14:09:55Z</time>
</trkpt>
<trkpt lat="35.455668" lon="134.877462">
 <ele>306</ele>
 <time>2020-03-24T14:09:55Z</time>
</trkpt>
<trkpt lat="35.455686" lon="134.877408">
 <ele>305</ele>
 <time>2020-03-24T14:09:55Z</time>
</trkpt>
<trkpt lat="35.455720" lon="134.877312">
 <ele>299</ele>
 <time>2020-03-24T14:09:55Z</time>
</trkpt>
<trkpt lat="35.455737" lon="134.877236">
 <ele>299</ele>
 <time>2020-03-24T14:09:55Z</time>
</trkpt>
<trkpt lat="35.455789" lon="134.877129">
 <ele>292</ele>
 <time>2020-03-24T14:09:55Z</time>
</trkpt>
<trkpt lat="35.455857" lon="134.877011">
 <ele>287</ele>
 <time>2020-03-24T14:09:56Z</time>
</trkpt>
<trkpt lat="35.455934" lon="134.876904">
 <ele>282</ele>
 <time>2020-03-24T14:09:56Z</time>
</trkpt>
<trkpt lat="35.455994" lon="134.876764">
 <ele>277</ele>
 <time>2020-03-24T14:09:56Z</time>
</trkpt>
<trkpt lat="35.456037" lon="134.876872">
 <ele>277</ele>
 <time>2020-03-24T14:09:56Z</time>
</trkpt>
<trkpt lat="35.456072" lon="134.876861">
 <ele>270</ele>
 <time>2020-03-24T14:09:56Z</time>
</trkpt>
<trkpt lat="35.456080" lon="134.876786">
 <ele>272</ele>
 <time>2020-03-24T14:09:56Z</time>
</trkpt>
<trkpt lat="35.456123" lon="134.876904">
 <ele>270</ele>
 <time>2020-03-24T14:09:56Z</time>
</trkpt>
<trkpt lat="35.456166" lon="134.876904">
 <ele>264</ele>
 <time>2020-03-24T14:09:57Z</time>
</trkpt>
<trkpt lat="35.456183" lon="134.876861">
 <ele>264</ele>
 <time>2020-03-24T14:09:57Z</time>
</trkpt>
<trkpt lat="35.456175" lon="134.876732">
 <ele>267</ele>
 <time>2020-03-24T14:09:57Z</time>
</trkpt>
<trkpt lat="35.456175" lon="134.876625">
 <ele>268</ele>
 <time>2020-03-24T14:09:57Z</time>
</trkpt>
<trkpt lat="35.456209" lon="134.876625">
 <ele>263</ele>
 <time>2020-03-24T14:09:57Z</time>
</trkpt>
<trkpt lat="35.456243" lon="134.876689">
 <ele>262</ele>
 <time>2020-03-24T14:09:57Z</time>
</trkpt>
<trkpt lat="35.456269" lon="134.876786">
 <ele>256</ele>
 <time>2020-03-24T14:09:58Z</time>
</trkpt>
<trkpt lat="35.456295" lon="134.876915">
 <ele>254</ele>
 <time>2020-03-24T14:09:58Z</time>
</trkpt>
<trkpt lat="35.456252" lon="134.877033">
 <ele>254</ele>
 <time>2020-03-24T14:09:58Z</time>
</trkpt>
<trkpt lat="35.456209" lon="134.877151">
 <ele>253</ele>
 <time>2020-03-24T14:09:58Z</time>
</trkpt>
<trkpt lat="35.456200" lon="134.877236">
 <ele>254</ele>
 <time>2020-03-24T14:09:58Z</time>
</trkpt>
<trkpt lat="35.456218" lon="134.877301">
 <ele>254</ele>
 <time>2020-03-24T14:09:58Z</time>
</trkpt>
<trkpt lat="35.456252" lon="134.877354">
 <ele>254</ele>
 <time>2020-03-24T14:09:59Z</time>
</trkpt>
<trkpt lat="35.456252" lon="134.877483">
 <ele>253</ele>
 <time>2020-03-24T14:09:59Z</time>
</trkpt>
<trkpt lat="35.456252" lon="134.877580">
 <ele>252</ele>
 <time>2020-03-24T14:09:59Z</time>
</trkpt>
<trkpt lat="35.456243" lon="134.877698">
 <ele>253</ele>
 <time>2020-03-24T14:09:59Z</time>
</trkpt>
<trkpt lat="35.456235" lon="134.877784">
 <ele>256</ele>
 <time>2020-03-24T14:09:59Z</time>
</trkpt>
<trkpt lat="35.456261" lon="134.877880">
 <ele>259</ele>
 <time>2020-03-24T14:09:59Z</time>
</trkpt>
<trkpt lat="35.456278" lon="134.877977">
 <ele>259</ele>
 <time>2020-03-24T14:09:59Z</time>
</trkpt>
<trkpt lat="35.456355" lon="134.878030">
 <ele>254</ele>
 <time>2020-03-24T14:10:00Z</time>
</trkpt>
<trkpt lat="35.456406" lon="134.878084">
 <ele>253</ele>
 <time>2020-03-24T14:10:00Z</time>
</trkpt>
<trkpt lat="35.456441" lon="134.878127">
 <ele>255</ele>
 <time>2020-03-24T14:10:00Z</time>
</trkpt>
<trkpt lat="35.456458" lon="134.878223">
 <ele>257</ele>
 <time>2020-03-24T14:10:00Z</time>
</trkpt>
<trkpt lat="35.456449" lon="134.878363">
 <ele>258</ele>
 <time>2020-03-24T14:10:00Z</time>
</trkpt>
<trkpt lat="35.456467" lon="134.878459">
 <ele>260</ele>
 <time>2020-03-24T14:10:00Z</time>
</trkpt>
<trkpt lat="35.456509" lon="134.878556">
 <ele>261</ele>
 <time>2020-03-24T14:10:01Z</time>
</trkpt>
<trkpt lat="35.456570" lon="134.878620">
 <ele>258</ele>
 <time>2020-03-24T14:10:01Z</time>
</trkpt>
<trkpt lat="35.456698" lon="134.878685">
 <ele>254</ele>
 <time>2020-03-24T14:10:01Z</time>
</trkpt>
<trkpt lat="35.456741" lon="134.878685">
 <ele>254</ele>
 <time>2020-03-24T14:10:01Z</time>
</trkpt>
<trkpt lat="35.456810" lon="134.878663">
 <ele>252</ele>
 <time>2020-03-24T14:10:01Z</time>
</trkpt>
<trkpt lat="35.456870" lon="134.878631">
 <ele>249</ele>
 <time>2020-03-24T14:10:01Z</time>
</trkpt>
<trkpt lat="35.456956" lon="134.878610">
 <ele>247</ele>
 <time>2020-03-24T14:10:02Z</time>
</trkpt>
<trkpt lat="35.457033" lon="134.878610">
 <ele>245</ele>
 <time>2020-03-24T14:10:02Z</time>
</trkpt>
<trkpt lat="35.457093" lon="134.878545">
 <ele>243</ele>
 <time>2020-03-24T14:10:02Z</time>
</trkpt>
<trkpt lat="35.457162" lon="134.878481">
 <ele>241</ele>
 <time>2020-03-24T14:10:02Z</time>
</trkpt>
<trkpt lat="35.457248" lon="134.878374">
 <ele>228</ele>
 <time>2020-03-24T14:10:02Z</time>
</trkpt>
<trkpt lat="35.457333" lon="134.878266">
 <ele>219</ele>
 <time>2020-03-24T14:10:02Z</time>
</trkpt>
<trkpt lat="35.457385" lon="134.878181">
 <ele>213</ele>
 <time>2020-03-24T14:10:03Z</time>
</trkpt>
<trkpt lat="35.457462" lon="134.878138">
 <ele>207</ele>
 <time>2020-03-24T14:10:03Z</time>
</trkpt>
<trkpt lat="35.457531" lon="134.878030">
 <ele>204</ele>
 <time>2020-03-24T14:10:03Z</time>
</trkpt>
<trkpt lat="35.457608" lon="134.877923">
 <ele>199</ele>
 <time>2020-03-24T14:10:03Z</time>
</trkpt>
<trkpt lat="35.457728" lon="134.877805">
 <ele>192</ele>
 <time>2020-03-24T14:10:03Z</time>
</trkpt>
<trkpt lat="35.457831" lon="134.877719">
 <ele>182</ele>
 <time>2020-03-24T14:10:03Z</time>
</trkpt>
<trkpt lat="35.457891" lon="134.877655">
 <ele>178</ele>
 <time>2020-03-24T14:10:04Z</time>
</trkpt>
<trkpt lat="35.457969" lon="134.877612">
 <ele>174</ele>
 <time>2020-03-24T14:10:04Z</time>
</trkpt>
<trkpt lat="35.458080" lon="134.877515">
 <ele>173</ele>
 <time>2020-03-24T14:10:04Z</time>
</trkpt>
<trkpt lat="35.458183" lon="134.877430">
 <ele>167</ele>
 <time>2020-03-24T14:10:04Z</time>
</trkpt>
<trkpt lat="35.458243" lon="134.877376">
 <ele>164</ele>
 <time>2020-03-24T14:10:04Z</time>
</trkpt>
<trkpt lat="35.458286" lon="134.877376">
 <ele>164</ele>
 <time>2020-03-24T14:10:04Z</time>
</trkpt>
<trkpt lat="35.458338" lon="134.877312">
 <ele>163</ele>
 <time>2020-03-24T14:10:04Z</time>
</trkpt>
<trkpt lat="35.458381" lon="134.877236">
 <ele>161</ele>
 <time>2020-03-24T14:10:05Z</time>
</trkpt>
<trkpt lat="35.458424" lon="134.877140">
 <ele>160</ele>
 <time>2020-03-24T14:10:05Z</time>
</trkpt>
<trkpt lat="35.458501" lon="134.877097">
 <ele>158</ele>
 <time>2020-03-24T14:10:05Z</time>
</trkpt>
<trkpt lat="35.458552" lon="134.877033">
 <ele>154</ele>
 <time>2020-03-24T14:10:05Z</time>
</trkpt>
<trkpt lat="35.458604" lon="134.876979">
 <ele>151</ele>
 <time>2020-03-24T14:10:05Z</time>
</trkpt>
<trkpt lat="35.458681" lon="134.876915">
 <ele>145</ele>
 <time>2020-03-24T14:10:05Z</time>
</trkpt>
<trkpt lat="35.458698" lon="134.876839">
 <ele>145</ele>
 <time>2020-03-24T14:10:06Z</time>
</trkpt>
<trkpt lat="35.458767" lon="134.876764">
 <ele>138</ele>
 <time>2020-03-24T14:10:06Z</time>
</trkpt>
<trkpt lat="35.458835" lon="134.876668">
 <ele>132</ele>
 <time>2020-03-24T14:10:06Z</time>
</trkpt>
<trkpt lat="35.458913" lon="134.876560">
 <ele>124</ele>
 <time>2020-03-24T14:10:06Z</time>
</trkpt>
<trkpt lat="35.458990" lon="134.876464">
 <ele>119</ele>
 <time>2020-03-24T14:10:06Z</time>
</trkpt>
<trkpt lat="35.459076" lon="134.876335">
 <ele>112</ele>
 <time>2020-03-24T14:10:06Z</time>
</trkpt>
<trkpt lat="35.459170" lon="134.876217">
 <ele>103.5</ele>
 <time>2020-03-24T14:10:06Z</time>
</trkpt>
<trkpt lat="35.459247" lon="134.876088">
 <ele>95.8</ele>
 <time>2020-03-24T14:10:07Z</time>
</trkpt>
<trkpt lat="35.459333" lon="134.875938">
 <ele>87.1</ele>
 <time>2020-03-24T14:10:07Z</time>
</trkpt>
<trkpt lat="35.459445" lon="134.875799">
 <ele>81.6</ele>
 <time>2020-03-24T14:10:07Z</time>
</trkpt>
<trkpt lat="35.459599" lon="134.875595">
 <ele>71</ele>
 <time>2020-03-24T14:10:07Z</time>
</trkpt>
<trkpt lat="35.459720" lon="134.875477">
 <ele>69.8</ele>
 <time>2020-03-24T14:10:07Z</time>
</trkpt>
<trkpt lat="35.459848" lon="134.875359">
 <ele>59</ele>
 <time>2020-03-24T14:10:07Z</time>
</trkpt>
<trkpt lat="35.459823" lon="134.875273">
 <ele>59.6</ele>
 <time>2020-03-24T14:10:07Z</time>
</trkpt>
<trkpt lat="35.459737" lon="134.875252">
 <ele>62.2</ele>
 <time>2020-03-24T14:10:07Z</time>
</trkpt>
<trkpt lat="35.459659" lon="134.875176">
 <ele>55.4</ele>
 <time>2020-03-24T14:10:07Z</time>
</trkpt>
<trkpt lat="35.459625" lon="134.875080">
 <ele>52.1</ele>
 <time>2020-03-24T14:10:08Z</time>
</trkpt>
<trkpt lat="35.459642" lon="134.874994">
 <ele>49.7</ele>
 <time>2020-03-24T14:10:08Z</time>
</trkpt>
<trkpt lat="35.459659" lon="134.874908">
 <ele>47</ele>
 <time>2020-03-24T14:10:08Z</time>
</trkpt>
<trkpt lat="35.459737" lon="134.874844">
 <ele>44.5</ele>
 <time>2020-03-24T14:10:08Z</time>
</trkpt>
<trkpt lat="35.459805" lon="134.874844">
 <ele>43.1</ele>
 <time>2020-03-24T14:10:08Z</time>
</trkpt>
<trkpt lat="35.459951" lon="134.874801">
 <ele>39.3</ele>
 <time>2020-03-24T14:10:08Z</time>
</trkpt>
<trkpt lat="35.460132" lon="134.874758">
 <ele>34</ele>
 <time>2020-03-24T14:10:08Z</time>
</trkpt>
<trkpt lat="35.460192" lon="134.874694">
 <ele>32.7</ele>
 <time>2020-03-24T14:10:08Z</time>
</trkpt>
<trkpt lat="35.460166" lon="134.874522">
 <ele>33.1</ele>
 <time>2020-03-24T14:10:08Z</time>
</trkpt>
<trkpt lat="35.460114" lon="134.874340">
 <ele>33.1</ele>
 <time>2020-03-24T14:10:08Z</time>
</trkpt>
<trkpt lat="35.460020" lon="134.874254">
 <ele>33.1</ele>
 <time>2020-03-24T14:10:09Z</time>
</trkpt>
<trkpt lat="35.459968" lon="134.874136">
 <ele>33.3</ele>
 <time>2020-03-24T14:10:09Z</time>
</trkpt>
<trkpt lat="35.459943" lon="134.873889">
 <ele>30.4</ele>
 <time>2020-03-24T14:10:09Z</time>
</trkpt>
<trkpt lat="35.459994" lon="134.873889">
 <ele>29.1</ele>
 <time>2020-03-24T14:10:09Z</time>
</trkpt>
<trkpt lat="35.460140" lon="134.873921">
 <ele>27.4</ele>
 <time>2020-03-24T14:10:09Z</time>
</trkpt>
<trkpt lat="35.460260" lon="134.873953">
 <ele>23.5</ele>
 <time>2020-03-24T14:10:09Z</time>
</trkpt>
<trkpt lat="35.460355" lon="134.873943">
 <ele>22.3</ele>
 <time>2020-03-24T14:10:09Z</time>
</trkpt>
<trkpt lat="35.460492" lon="134.873921">
 <ele>20.4</ele>
 <time>2020-03-24T14:10:09Z</time>
</trkpt>
<trkpt lat="35.460595" lon="134.873921">
 <ele>20</ele>
 <time>2020-03-24T14:10:09Z</time>
</trkpt>
<trkpt lat="35.460715" lon="134.873878">
 <ele>17.3</ele>
 <time>2020-03-24T14:10:09Z</time>
</trkpt>
<trkpt lat="35.460878" lon="134.873857">
 <ele>14.1</ele>
 <time>2020-03-24T14:10:10Z</time>
</trkpt>
<trkpt lat="35.461041" lon="134.873814">
 <ele>12.9</ele>
 <time>2020-03-24T14:10:10Z</time>
</trkpt>
<trkpt lat="35.461041" lon="134.873674">
 <ele>13.1</ele>
 <time>2020-03-24T14:10:10Z</time>
</trkpt>
<trkpt lat="35.460930" lon="134.873610">
 <ele>10.8</ele>
 <time>2020-03-24T14:10:10Z</time>
</trkpt>
<trkpt lat="35.460835" lon="134.873556">
 <ele>12.7</ele>
 <time>2020-03-24T14:10:10Z</time>
</trkpt>
<trkpt lat="35.460655" lon="134.873514">
 <ele>12.5</ele>
 <time>2020-03-24T14:10:10Z</time>
</trkpt>
<trkpt lat="35.460398" lon="134.873449">
 <ele>13.4</ele>
 <time>2020-03-24T14:10:10Z</time>
</trkpt>
<trkpt lat="35.460269" lon="134.873374">
 <ele>13.4</ele>
 <time>2020-03-24T14:10:10Z</time>
</trkpt>
<trkpt lat="35.460140" lon="134.873331">
 <ele>13.6</ele>
 <time>2020-03-24T14:10:10Z</time>
</trkpt>
<trkpt lat="35.460003" lon="134.873277">
 <ele>14.5</ele>
 <time>2020-03-24T14:10:10Z</time>
</trkpt>
<trkpt lat="35.459848" lon="134.873181">
 <ele>13.9</ele>
 <time>2020-03-24T14:10:11Z</time>
</trkpt>
<trkpt lat="35.459814" lon="134.873074">
 <ele>13.4</ele>
 <time>2020-03-24T14:10:11Z</time>
</trkpt>
<trkpt lat="35.459780" lon="134.872977">
 <ele>12.5</ele>
 <time>2020-03-24T14:10:11Z</time>
</trkpt>
<trkpt lat="35.459668" lon="134.872870">
 <ele>11.9</ele>
 <time>2020-03-24T14:10:11Z</time>
</trkpt>
</trkseg>
</trk>
</gpx>

